Location: ??????
(33.3472°N, 35.4764°E)
Time: 04:01:07
(UTC+00:00)

Cosmos 2016 Rocket - Pass Details

Date: 21 August 2019
Orbit: 946 x 1001 km, 83.0° (Epoch: 20 September)

Event Time Altitude Azimuth Distance (km) Brightness Sun altitude
Rises 00:02:22 0° 358° (N) 3,649 7.6 -33.4°
Reaches altitude 10° 00:04:56 10° 2° (N) 2,693 6.8 -33.0°
Maximum altitude 00:10:59 59° 82° (E) 1,086 4.3 -32.1°
Enters shadow 00:11:22 58° 99° (E) 1,096 4.3 -32.1°
